This is the latest recevied weather packets stored in our database for station/object N7CW. If no packets are shown the sender has not sent any weather packets the latest 10 day(s).
| Time | Temp. | Humidity | Pressure | Rain* | Wind** | Luminosity | Snow |
|---|---|---|---|---|---|---|---|
| 1777742678 | 20° C | 26% | 1020.4 hPa | 0 mm | - | 720 W/m² | - |
| 1777742374 | 19.44° C | 27% | 1020.5 hPa | 0 mm | - | 674 W/m² | - |
| 1777742070 | 18.89° C | 29% | 1020.3 hPa | 0 mm | - | 597 W/m² | - |
| 1777741768 | 18.89° C | 28% | 1020.5 hPa | 0 mm | - | 694 W/m² | - |
| 1777741464 | 18.89° C | 29% | 1020.5 hPa | 0 mm | - | 677 W/m² | - |
| 1777741160 | 18.89° C | 27% | 1020.3 hPa | 0 mm | - | 665 W/m² | - |
| 1777740857 | 18.33° C | 29% | 1020.6 hPa | 0 mm | - | 653 W/m² | - |
| 1777740554 | 18.33° C | 29% | 1020.4 hPa | 0 mm | - | 640 W/m² | - |
| 1777740251 | 18.89° C | 28% | 1020.4 hPa | 0 mm | - | 628 W/m² | - |
| 1777739947 | 18.89° C | 29% | 1020.5 hPa | 0 mm | - | 617 W/m² | - |
| 1777739643 | 18.89° C | 29% | 1020.4 hPa | 0 mm | - | 604 W/m² | - |
| 1777739341 | 18.33° C | 30% | 1020.4 hPa | 0 mm | - | 589 W/m² | - |
| 1777739037 | 17.78° C | 29% | 1020.3 hPa | 0 mm | - | 576 W/m² | - |
| 1777738735 | 17.78° C | 30% | 1020.3 hPa | 0 mm | - | 561 W/m² | - |
| 1777738431 | 17.78° C | 29% | 1020.3 hPa | 0 mm | - | 544 W/m² | - |
| 1777738129 | 17.78° C | 28% | 1020.3 hPa | 0 mm | - | 532 W/m² | - |
| 1777737827 | 17.78° C | 29% | 1020.5 hPa | 0 mm | - | 519 W/m² | - |
| 1777737525 | 17.78° C | 29% | 1020.4 hPa | 0 mm | - | 505 W/m² | - |
| 1777737223 | 17.22° C | 29% | 1020.1 hPa | 0 mm | - | 489 W/m² | - |
| 1777736919 | 16.67° C | 30% | 1020.3 hPa | 0 mm | - | 470 W/m² | - |
| 1777736310 | 16.67° C | 30% | 1020 hPa | 0 mm | - | 441 W/m² | - |
| 1777736007 | 16.11° C | 29% | 1020.3 hPa | 0 mm | - | 428 W/m² | - |
| 1777735705 | 16.11° C | 29% | 1019.9 hPa | 0 mm | - | 406 W/m² | - |
| 1777735402 | 15.56° C | 29% | 1019.9 hPa | 0 mm | - | 379 W/m² | - |
| 1777735100 | 16.11° C | 29% | 1020 hPa | 0 mm | - | 345 W/m² | - |
* Rain latest hour (hover to see other rain measurements)
** Current wind speed in m/s (hover to see current wind gust speed)